This demonstration page uses our WeatherBlox Daily Observations layout. Learn more.

Hourly Observations for June 5, 2020

Temp ( °F °C ) Dew Point ( °F °C ) Humidity (%) Winds ( mph kmh ) Pressure ( in mb ) Visibility ( mi km ) Precip ( " mm )
12:15 am 00:15 Clear 75 24.1 56 13.1 50 50 N 7 11 29.69 1006 10 16.0934 0 0
12:35 am 00:35 Clear 75 23.9 55 13 51 51 Calm 29.69 1005 10 16.0934 0 0
12:55 am 00:55 Clear 73 22.6 55 12.7 54 54 Calm 29.71 1006 10 16.0934 0 0
1:15 am 01:15 Clear 72 22 56 13.6 59 59 Calm 29.71 1006 10 16.0934 0 0
1:35 am 01:35 Clear 73 22.7 55 12.6 53 53 NNW 5 7 29.71 1006 10 16.0934 0 0
1:55 am 01:55 Clear 69 20.5 58 14.2 67 67 N 5 7 29.73 1007 10 16.0934 0 0
2:15 am 02:15 Clear 68 20 58 14.5 71 71 ENE 7 11 29.75 1007 10 16.0934 0 0
2:35 am 02:35 Clear 69 20.6 58 14.5 68 68 ENE 10 17 29.74 1007 10 16.0934 0 0
2:55 am 02:55 Clear 67 19.5 58 14.6 73 73 E 6 9 29.75 1008 10 16.0934 0 0
3:15 am 03:15 Clear 67 19.3 58 14.7 75 75 E 5 7 29.76 1008 10 16.0934 0 0
3:35 am 03:35 Clear 67 19.3 58 14.7 75 75 Calm 29.76 1008 10 16.0934 0 0
3:55 am 03:55 Clear 67 19.3 59 15 76 76 N 6 9 29.78 1009 10 16.0934 0 0
4:15 am 04:15 Clear 66 18.8 59 14.9 78 78 Calm 29.8 1009 10 16.0934 0 0
4:35 am 04:35 Clear 65 18.2 59 15.1 82 82 Calm 29.81 1010 10 16.0934 0 0
4:55 am 04:55 Clear 65 18.5 58 14.6 78 78 Calm 29.82 1010 10 16.0934 0 0
5:15 am 05:15 Clear 67 19.2 59 14.8 76 76 SSE 5 7 29.81 1010 10 16.0934 0 0
5:35 am 05:35 Clear 65 18.5 59 15 80 80 S 7 11 29.81 1009 10 16.0934 0 0
5:55 am 05:55 Clear 67 19.5 58 14.6 73 73 S 3 6 29.8 1009 10 16.0934 0 0
6:15 am 06:15 Sunny 66 18.9 58 14.4 75 75 S 3 6 29.82 1010 10 16.0934 0 0
6:35 am 06:35 Sunny 66 19 58 14.5 75 75 S 6 9 29.83 1010 10 16.0934 0 0
6:55 am 06:55 Sunny 68 19.8 58 14.2 70 70 S 7 11 29.82 1010 10 16.0934 0 0
7:15 am 07:15 Sunny 69 20.4 58 14.5 69 69 Calm 29.83 1010 10 16.0934 0 0
7:35 am 07:35 Sunny 70 21.3 59 14.9 67 67 S 3 6 29.83 1010 10 16.0934 0 0
7:55 am 07:55 Sunny 73 22.7 58 14.5 60 60 S 6 9 29.81 1009 10 16.0934 0 0
8:15 am 08:15 Sunny 75 23.9 58 14.5 56 56 S 6 9 29.81 1009 10 16.0934 0 0
8:35 am 08:35 Sunny 77 25 58 14.7 53 53 S 3 6 29.8 1009 10 16.0934 0 0
8:55 am 08:55 Sunny 79 26.1 59 14.9 50 50 S 8 13 29.79 1009 10 16.0934 0 0
9:15 am 09:15 Sunny 81 27.2 58 14.3 45 45 S 8 13 29.79 1009 10 16.0934 0 0
9:35 am 09:35 Sunny 82 28 57 14.1 43 43 S 10 17 29.78 1009 10 16.0934 0 0
9:55 am 09:55 Sunny 82 28 57 14 42 42 S 8 13 29.78 1009 10 16.0934 0 0
10:15 am 10:15 Sunny 83 28.4 57 13.9 41 41 S 3 6 29.78 1008 10 16.0934 0 0
10:35 am 10:35 Sunny 83 28.6 58 14.4 42 42 SSE 6 9 29.78 1008 10 16.0934 0 0
10:55 am 10:55 Sunny 84 29 59 14.8 42 42 SSE 3 6 29.79 1009 10 16.0934 0 0
11:15 am 11:15 Sunny 84 29 57 14.1 40 40 Calm 29.79 1009 10 16.0934 0 0
11:35 am 11:35 Sunny 85 29.2 57 14.1 40 40 SE 6 9 29.78 1009 10 16.0934 0 0
11:55 am 11:55 Sunny 85 29.7 59 14.8 40 40 ESE 7 11 29.78 1008 10 16.0934 0 0
12:15 pm 12:15 Sunny 86 30 60 15.4 41 41 SE 9 15 29.78 1008 10 16.0934 0 0
12:35 pm 12:35 Sunny 86 30.1 60 15.6 41 41 SSE 9 15 29.78 1008 10 16.0934 0 0
12:55 pm 12:55 Sunny 87 30.3 59 15.2 40 40 SE 10 17 29.77 1008 10 16.0934 0 0
1:15 pm 13:15 Sunny 88 30.9 61 16.1 41 41 SSE 12 19 29.76 1008 10 16.0934 0 0
1:35 pm 13:35 Sunny 87 30.6 60 15.6 40 40 ESE 8 13 29.76 1008 10 16.0934 0 0
1:55 pm 13:55 Sunny 88 31.2 60 15.5 39 39 ESE 13 20 29.76 1008 10 16.0934 0 0
2:15 pm 14:15 Sunny 88 31.2 60 15.4 38 38 SE 10 17 29.76 1008 10 16.0934 0 0
2:35 pm 14:35 Sunny 89 31.8 60 15.8 38 38 SE 12 19 29.75 1008 10 16.0934 0 0
2:55 pm 14:55 Sunny 89 31.9 61 15.9 38 38 ESE 14 22 29.75 1008 10 16.0934 0 0
3:15 pm 15:15 Sunny 90 32.1 61 15.9 38 38 ESE 10 17 29.74 1007 10 16.0934 0 0
3:35 pm 15:35 Sunny 90 32.4 60 15.6 36 36 SE 9 15 29.74 1007 10 16.0934 0 0
3:55 pm 15:55 Sunny 91 32.5 58 14.3 33 33 S 3 6 29.74 1007 10 16.0934 0 0
4:15 pm 16:15 Sunny 91 32.8 58 14.4 33 33 SSE 3 6 29.74 1007 10 16.0934 0 0
4:35 pm 16:35 Sunny 92 33.2 59 15.1 34 34 S 8 13 29.72 1007 10 16.0934 0 0
4:55 pm 16:55 Sunny 92 33.2 60 15.5 34 34 S 10 17 29.71 1006 10 16.0934 0 0
5:15 pm 17:15 Sunny 92 33.5 59 15.2 33 33 SSE 9 15 29.71 1006 10 16.0934 0 0
5:35 pm 17:35 Sunny 92 33.3 59 14.9 33 33 S 6 9 29.71 1006 10 16.0934 0 0
5:55 pm 17:55 Sunny 92 33.2 58 14.6 32 32 SE 8 13 29.71 1006 10 16.0934 0 0
6:15 pm 18:15 Sunny 92 33.3 59 14.9 33 33 SE 12 19 29.7 1006 10 16.0934 0 0
6:35 pm 18:35 Sunny 92 33.2 59 15.2 34 34 SE 10 17 29.7 1006 10 16.0934 0 0
6:55 pm 18:55 Sunny 92 33.1 57 14.1 32 32 SSE 8 13 29.7 1006 10 16.0934 0 0
7:15 pm 19:15 Sunny 91 32.8 60 15.7 36 36 SSE 9 15 29.71 1006 10 16.0934 0 0
7:35 pm 19:35 Sunny 90 32.4 59 15.2 35 35 SE 8 13 29.71 1006 10 16.0934 0 0
7:55 pm 19:55 Sunny 89 31.9 61 16.3 39 39 SSE 8 13 29.72 1007 10 16.0934 0 0
8:15 pm 20:15 Sunny 89 31.4 62 16.7 41 41 SE 7 11 29.72 1006 10 16.0934 0 0
8:35 pm 20:35 Sunny 87 30.3 64 17.5 46 46 SE 7 11 29.74 1007 10 16.0934 0 0
8:55 pm 20:55 Sunny 84 28.8 64 17.7 51 51 SE 7 11 29.75 1007 10 16.0934 0 0
9:15 pm 21:15 Clear 81 27.2 64 18 57 57 SE 8 13 29.76 1008 10 16.0934 0 0
9:35 pm 21:35 Clear 81 27.1 64 17.9 57 57 SE 8 13 29.76 1008 10 16.0934 0 0
9:55 pm 21:55 Clear 79 26.2 64 18 61 61 SE 6 9 29.78 1008 10 16.0934 0 0
10:15 pm 22:15 Clear 78 25.4 64 18 64 64 SE 7 11 29.79 1009 10 16.0934 0 0
10:35 pm 22:35 Clear 77 25.1 64 18 65 65 SE 8 13 29.8 1009 10 16.0934 0 0
10:55 pm 22:55 Clear 78 25.7 64 18 63 63 SE 8 13 29.8 1009 10 16.0934 0 0
11:15 pm 23:15 Clear 77 25.2 64 18 64 64 SE 8 13 29.82 1010 10 16.0934 0 0
11:35 pm 23:35 Clear 78 25.7 64 17.9 62 62 SE 9 15 29.81 1010 10 16.0934 0 0
11:55 pm 23:55 Clear 79 26.2 64 18 61 61 SE 12 19 29.8 1009 10 16.0934 0 0

Powered by AerisWeather